When you browse on this site, cookies collect data to enhance your experience and personalize the content and advertising you see.
Visit our Privacy Policy to learn more. By continuing to use the site, you agree to this use of cookies and data.
  • In Romania
  • List of Countries
  • For 7 days
  • Water Temperature
  • Weather Map
  • Weather Widgets
  • user-avatar
    Login

    Hourly Weather Guanare

    Today, 16 December, Monday

    Time Temperature Precipitation Wind Pressure Humidity
    00:00 +24°C° 1.1 mm 1 mps 742 mmHg 91%
    01:00 +24°C° 0 mm 1 mps 742 mmHg 91%
    02:00 +24°C° 1 mm 1 mps 742 mmHg 92%
    03:00 +23°C° 1 mm 1 mps 741 mmHg 93%
    04:00 +23°C° 1 mm 1 mps 741 mmHg 93%
    05:00 +24°C° 0.1 mm 1 mps 742 mmHg 92%
    06:00 +24°C° 0.1 mm 1 mps 742 mmHg 90%
    07:00 +25°C° 0.1 mm 1 mps 742 mmHg 89%
    08:00 +27°C° 0.1 mm 1 mps 743 mmHg 79%
    09:00 +30°C° 0.1 mm 1 mps 743 mmHg 70%
    10:00 +32°C° 0.1 mm 1 mps 743 mmHg 60%
    11:00 +32°C° 0.4 mm 1 mps 742 mmHg 61%
    12:00 +32°C° 0.4 mm 1 mps 741 mmHg 62%
    13:00 +32°C° 0.4 mm 1 mps 740 mmHg 62%
    14:00 +32°C° 0.1 mm 1 mps 740 mmHg 64%
    15:00 +32°C° 0.1 mm 1 mps 739 mmHg 65%
    16:00 +31°C° 0.1 mm 1 mps 739 mmHg 66%
    17:00 +30°C° 0 mm 1 mps 739 mmHg 71%
    18:00 +28°C° 0 mm 1 mps 739 mmHg 76%
    19:00 +26°C° 0 mm 1 mps 740 mmHg 81%
    20:00 +26°C° 0.1 mm 1 mps 740 mmHg 83%
    21:00 +26°C° 0.1 mm 1 mps 741 mmHg 84%
    22:00 +25°C° 0.1 mm 1 mps 742 mmHg 86%
    23:00 +25°C° 0.6 mm 1 mps 741 mmHg 88%

    Tomorrow, 17 December, Tuesday

    Time Temperature Precipitation Wind Pressure Humidity
    00:00 +24°C° 0.6 mm 1 mps 741 mmHg 90%
    01:00 +24°C° 0.6 mm 1 mps 740 mmHg 92%
    02:00 +24°C° 0.6 mm 1 mps 740 mmHg 92%
    03:00 +24°C° 0.6 mm 1 mps 741 mmHg 93%
    04:00 +23°C° 0.6 mm 1 mps 741 mmHg 93%
    05:00 +24°C° 0.1 mm 1 mps 741 mmHg 92%
    06:00 +24°C° 0.1 mm 1 mps 741 mmHg 91%
    07:00 +23°C° 0.1 mm 0 mps 742 mmHg 90%
    08:00 +26°C° 0.5 mm 1 mps 742 mmHg 85%
    09:00 +28°C° 0.5 mm 1 mps 742 mmHg 81%
    10:00 +29°C° 0.5 mm 1 mps 742 mmHg 76%
    11:00 +30°C° 0.8 mm 1 mps 741 mmHg 74%
    12:00 +30°C° 0.8 mm 1 mps 740 mmHg 73%
    13:00 +28°C° 0.8 mm 0 mps 739 mmHg 71%
    14:00 +30°C° 0.3 mm 1 mps 739 mmHg 71%
    15:00 +30°C° 0.3 mm 1 mps 738 mmHg 71%
    16:00 +30°C° 0.3 mm 1 mps 738 mmHg 71%
    17:00 +29°C° 0 mm 1 mps 738 mmHg 75%
    18:00 +27°C° 0 mm 1 mps 739 mmHg 80%
    19:00 +26°C° 0 mm 1 mps 739 mmHg 84%
    20:00 +25°C° 0 mm 1 mps 739 mmHg 84%
    21:00 +25°C° 0 mm 1 mps 740 mmHg 83%
    22:00 +25°C° 0 mm 1 mps 741 mmHg 83%
    23:00 +25°C° 0.1 mm 1 mps 740 mmHg 82%

    Day after tomorrow, 18 December, Wednesday

    Time Temperature Precipitation Wind Pressure Humidity
    00:00 +25°C° 0.1 mm 1 mps 740 mmHg 82%
    01:00 +24°C° 0.1 mm 1 mps 740 mmHg 81%
    02:00 +24°C° 0.3 mm 1 mps 740 mmHg 85%
    03:00 +24°C° 0.3 mm 1 mps 740 mmHg 89%
    04:00 +24°C° 0.3 mm 1 mps 740 mmHg 92%
    05:00 +24°C° 0.1 mm 1 mps 740 mmHg 92%
    06:00 +25°C° 0.1 mm 1 mps 741 mmHg 91%
    07:00 +25°C° 0.1 mm 1 mps 742 mmHg 90%
    08:00 +26°C° 0.2 mm 1 mps 742 mmHg 86%
    09:00 +27°C° 0.2 mm 1 mps 742 mmHg 81%
    10:00 +28°C° 0.2 mm 2 mps 742 mmHg 77%
    11:00 +29°C° 0.2 mm 2 mps 741 mmHg 72%
    12:00 +30°C° 0.2 mm 2 mps 741 mmHg 68%
    13:00 +31°C° 0.2 mm 2 mps 740 mmHg 64%
    14:00 +31°C° 0.1 mm 2 mps 739 mmHg 66%
    15:00 +30°C° 0.1 mm 1 mps 739 mmHg 69%
    16:00 +30°C° 0.1 mm 1 mps 738 mmHg 71%
    17:00 +28°C° 0 mm 1 mps 739 mmHg 76%
    18:00 +27°C° 0 mm 1 mps 739 mmHg 80%
    19:00 +26°C° 0 mm 1 mps 740 mmHg 85%
    20:00 +25°C° 0 mm 1 mps 740 mmHg 85%
    21:00 +25°C° 0 mm 1 mps 740 mmHg 85%
    22:00 +25°C° 0 mm 1 mps 741 mmHg 85%
    23:00 +24°C° 0 mm 1 mps 741 mmHg 84%

    19 December, Thursday

    Time Temperature Precipitation Wind Pressure Humidity
    00:00 +24°C° 0 mm 1 mps 740 mmHg 83%
    01:00 +24°C° 0 mm 1 mps 740 mmHg 81%
    02:00 +24°C° 0 mm 1 mps 740 mmHg 79%
    03:00 +25°C° 0 mm 1 mps 740 mmHg 78%
    04:00 +25°C° 0 mm 1 mps 740 mmHg 76%
    05:00 +25°C° 0.1 mm 1 mps 741 mmHg 78%
    06:00 +26°C° 0.1 mm 1 mps 741 mmHg 81%
    07:00 +26°C° 0.1 mm 1 mps 742 mmHg 83%
    08:00 +27°C° 0.2 mm 1 mps 742 mmHg 79%
    09:00 +28°C° 0.2 mm 2 mps 742 mmHg 74%
    10:00 +29°C° 0.2 mm 2 mps 742 mmHg 70%
    11:00 +30°C° 0 mm 2 mps 741 mmHg 64%
    12:00 +31°C° 0 mm 2 mps 741 mmHg 59%
    13:00 +32°C° 0 mm 2 mps 740 mmHg 53%
    14:00 +32°C° 0 mm 1 mps 740 mmHg 57%
    15:00 +31°C° 0 mm 1 mps 739 mmHg 60%
    16:00 +31°C° 0 mm 1 mps 739 mmHg 63%
    17:00 +29°C° 0 mm 1 mps 739 mmHg 68%
    18:00 +28°C° 0 mm 1 mps 740 mmHg 73%
    19:00 +26°C° 0 mm 1 mps 740 mmHg 78%
    20:00 +26°C° 0 mm 1 mps 741 mmHg 78%
    21:00 +26°C° 0 mm 1 mps 741 mmHg 78%
    22:00 +25°C° 0 mm 1 mps 742 mmHg 79%
    23:00 +25°C° 0 mm 1 mps 741 mmHg 78%

    20 December, Friday

    Time Temperature Precipitation Wind Pressure Humidity
    00:00 +25°C° 0 mm 1 mps 741 mmHg 78%
    01:00 +25°C° 0 mm 1 mps 741 mmHg 78%
    02:00 +25°C° 0.1 mm 1 mps 741 mmHg 78%
    03:00 +25°C° 0.1 mm 1 mps 741 mmHg 77%
    04:00 +25°C° 0.1 mm 1 mps 741 mmHg 77%
    05:00 +25°C° 0.2 mm 1 mps 741 mmHg 80%
    06:00 +25°C° 0.2 mm 1 mps 742 mmHg 83%
    07:00 +25°C° 0.2 mm 1 mps 742 mmHg 85%
    08:00 +27°C° 0 mm 1 mps 742 mmHg 80%
    09:00 +28°C° 0 mm 1 mps 742 mmHg 74%
    10:00 +30°C° 0 mm 1 mps 743 mmHg 69%
    11:00 +31°C° 0.1 mm 1 mps 742 mmHg 65%
    12:00 +32°C° 0.1 mm 1 mps 741 mmHg 60%
    13:00 +33°C° 0.1 mm 1 mps 740 mmHg 56%
    14:00 +32°C° 0 mm 1 mps 740 mmHg 58%
    15:00 +32°C° 0 mm 1 mps 739 mmHg 61%
    16:00 +31°C° 0 mm 1 mps 739 mmHg 64%
    17:00 +30°C° 0.1 mm 1 mps 739 mmHg 70%
    18:00 +28°C° 0.1 mm 1 mps 740 mmHg 75%
    19:00 +26°C° 0.1 mm 1 mps 740 mmHg 81%
    20:00 +26°C° 0 mm 1 mps 741 mmHg 82%
    21:00 +26°C° 0 mm 1 mps 741 mmHg 83%
    22:00 +25°C° 0 mm 1 mps 741 mmHg 85%
    23:00 +25°C° 1.2 mm 1 mps 741 mmHg 88%

    21 December, Saturday

    Time Temperature Precipitation Wind Pressure Humidity
    00:00 +25°C° 1.2 mm 1 mps 741 mmHg 91%
    01:00 +24°C° 1.2 mm 1 mps 741 mmHg 94%
    02:00 +24°C° 1.6 mm 1 mps 741 mmHg 95%
    03:00 +24°C° 1.6 mm 1 mps 741 mmHg 95%
    04:00 +24°C° 1.6 mm 1 mps 740 mmHg 96%
    05:00 +24°C° 0.7 mm 1 mps 741 mmHg 95%
    06:00 +25°C° 0.7 mm 1 mps 741 mmHg 94%
    07:00 +25°C° 0.7 mm 1 mps 742 mmHg 94%
    08:00 +26°C° 0.6 mm 1 mps 742 mmHg 90%
    09:00 +27°C° 0.6 mm 1 mps 742 mmHg 86%
    10:00 +28°C° 0.6 mm 2 mps 743 mmHg 82%
    11:00 +29°C° 1.1 mm 2 mps 742 mmHg 78%
    12:00 +30°C° 1.1 mm 2 mps 741 mmHg 74%
    13:00 +30°C° 1.1 mm 2 mps 740 mmHg 71%
    14:00 +30°C° 0.5 mm 2 mps 739 mmHg 73%
    15:00 +30°C° 0.5 mm 1 mps 739 mmHg 75%
    16:00 +30°C° 0.5 mm 1 mps 738 mmHg 77%
    17:00 +28°C° 0 mm 1 mps 739 mmHg 80%
    18:00 +27°C° 0 mm 1 mps 739 mmHg 83%
    19:00 +26°C° 0 mm 1 mps 740 mmHg 86%
    20:00 +25°C° 0 mm 1 mps 740 mmHg 85%
    21:00 +25°C° 0 mm 1 mps 740 mmHg 84%
    22:00 +25°C° 0 mm 1 mps 741 mmHg 83%
    23:00 +25°C° 0 mm 1 mps 741 mmHg 83%
    Show more